Vorticity
4 3 -0 3 4 4 8 12 22 54 38 10 5 -0 4 3 5 6 5 5 4 -1 3 5 4 4 3 4 3 3 3 8
3 5 2 5 -0 19 21 14 5 17 11 6 14 12 9 7 6 5 5 6 6 6 4 3 2 3 5 8 10 12 11 9
14 16 24 25 9 2 3 9 9 10 0 3 3 10 14 15 12 8 5 6 10 11 11 12 12 12 10 8 8 9 8 9
17 9 12 8 14 16 17 10 6 5 14 14 4 11 13 7 2 -0 3 6 6 7 7 5 5 6 9 11 12 12 11 11
7 14 12 13 8 8 8 11 11 9 -1 -3 -3 -1 5 8 11 11 5 5 7 12 12 11 13 11 11 9 7 5 5 6
-1 -3 14 -0 11 15 -5 -16 -10 7 3 -0 0 0 6 10 9 7 9 9 9 6 7 10 9 7 8 9 10 13 22 27
-7 25 4 -7 -1 -17 2 11 4 7 -1 1 -1 -3 10 7 9 11 9 10 8 10 9 4 12 18 13 11 17 17 13 9
14 3 -3 -11 -1 4 16 4 1 5 1 3 2 13 7 8 9 10 9 8 5 7 10 9 6 -3 19 3 17 15 15 19
-10 -10 9 19 9 2 7 1 -1 4 -2 5 10 7 8 7 9 6 5 7 10 7 9 6 12 12 7 4 20 27 11 13
8 7 24 2 1 5 3 4 3 -1 2 2 10 7 9 7 6 10 11 9 7 7 12 7 8 5 25 15 15 28 39 22
18 1 2 2 5 11 -1 3 5 -1 -5 13 10 11 9 10 10 8 6 6 7 9 9 22 20 24 2 18 41 15 5 6
4 11 5 -1 9 4 6 9 -1 -7 13 11 9 7 8 7 6 5 7 7 9 15 17 4 12 12 26 43 8 7 8 9
9 3 6 6 9 7 6 -3 -3 13 11 8 9 9 8 6 4 4 8 13 18 9 13 11 9 8 6 -45 22 2 0 5
4 8 7 6 10 5 -5 18 8 7 9 8 9 7 4 5 10 16 14 10 15 18 12 17 16 25 11 5 23 5 -6 3
6 6 6 9 -3 2 12 5 9 9 7 4 6 6 10 12 12 15 15 18 14 15 15 19 21 18 30 10 20 7 3 11
10 7 6 2 6 10 11 8 5 4 7 7 8 10 11 12 14 16 19 12 17 14 18 21 17 14 9 9 8 6 10 11
9 4 -3 8 11 11 6 7 6 7 7 9 10 11 12 13 14 14 14 12 12 11 14 17 14 7 8 8 3 13 10 8
4 5 10 11 9 9 6 6 6 8 10 10 9 11 12 13 12 10 9 15 11 17 14 -1 6 13 10 9 11 9 10 10
3 7 6 12 14 6 6 8 9 10 9 9 10 11 12 11 12 15 11 14 15 15 19 11 13 10 6 12 10 9 8 9
Height
3162 3162 3163 3163 3163 3162 3159 3157 3148 3148 3149 3159 3160 3160 3156 3154 3153 3151 3148 3145 3143 3140 3137 3133 3129 3125 3121 3117 3112 3109 3105 3099
3160 3160 3161 3161 3160 3158 3158 3158 3155 3153 3156 3157 3156 3157 3153 3149 3147 3145 3143 3140 3136 3132 3129 3125 3121 3117 3112 3108 3103 3099 3095 3090
3156 3158 3160 3160 3160 3159 3158 3157 3154 3153 3155 3155 3154 3151 3148 3146 3144 3140 3136 3133 3129 3125 3121 3116 3112 3108 3103 3097 3092 3088 3084 3078
3156 3158 3159 3159 3159 3158 3157 3157 3157 3156 3153 3151 3149 3147 3144 3141 3137 3133 3129 3124 3121 3117 3112 3106 3100 3095 3090 3085 3081 3076 3071 3068
3154 3155 3155 3156 3156 3156 3156 3155 3153 3151 3150 3147 3143 3139 3136 3133 3129 3124 3119 3115 3110 3104 3099 3094 3089 3084 3079 3074 3069 3064 3059 3054
3153 3153 3153 3153 3154 3154 3153 3151 3149 3146 3143 3140 3136 3133 3128 3123 3119 3115 3109 3103 3098 3093 3088 3083 3078 3072 3067 3063 3059 3054 3050 3045
3148 3149 3150 3149 3149 3149 3147 3145 3143 3140 3138 3135 3131 3127 3122 3116 3111 3105 3100 3095 3091 3085 3080 3074 3069 3064 3058 3052 3047 3043 3039 3034
3146 3147 3146 3144 3145 3144 3143 3141 3138 3135 3132 3129 3124 3119 3113 3108 3103 3097 3092 3087 3083 3077 3071 3065 3059 3054 3048 3044 3039 3034 3030 3026
3144 3142 3140 3140 3141 3140 3138 3135 3132 3130 3127 3122 3117 3111 3105 3100 3095 3089 3083 3077 3072 3067 3062 3055 3049 3045 3039 3034 3028 3024 3020 3016
3141 3139 3138 3137 3137 3135 3133 3131 3128 3124 3120 3115 3109 3103 3097 3091 3087 3082 3075 3068 3062 3056 3051 3045 3039 3033 3028 3022 3018 3012 3009 3007
3137 3137 3136 3135 3133 3130 3128 3125 3121 3116 3112 3107 3101 3096 3090 3083 3077 3070 3063 3057 3052 3046 3040 3034 3028 3023 3019 3014 3009 3004 3001 2998
3134 3133 3132 3130 3127 3125 3123 3119 3114 3110 3105 3100 3094 3087 3081 3074 3067 3060 3054 3047 3041 3034 3027 3023 3017 3013 3008 3005 3001 2998 2994 2992
3128 3127 3125 3123 3121 3119 3115 3110 3107 3102 3097 3090 3084 3078 3071 3065 3059 3053 3046 3039 3033 3026 3020 3015 3010 3005 3001 2997 2994 2991 2988 2985
3122 3120 3119 3117 3114 3110 3106 3102 3098 3094 3088 3082 3075 3069 3064 3059 3052 3045 3037 3030 3024 3018 3012 3006 3001 2997 2994 2991 2987 2984 2981 2977
3117 3116 3114 3111 3107 3103 3099 3095 3091 3085 3079 3074 3069 3064 3058 3051 3044 3036 3028 3022 3015 3009 3003 2998 2993 2990 2986 2983 2981 2978 2974 2969
3112 3111 3108 3104 3100 3096 3092 3087 3081 3077 3073 3068 3061 3055 3049 3042 3034 3027 3020 3014 3008 3001 2995 2990 2986 2983 2980 2977 2975 2971 2966 2961
3108 3105 3101 3097 3094 3090 3085 3080 3076 3071 3065 3059 3053 3047 3040 3032 3025 3018 3012 3005 2999 2994 2990 2985 2981 2978 2975 2972 2969 2965 2960 2954
3102 3098 3095 3091 3086 3081 3077 3073 3068 3063 3057 3051 3045 3037 3030 3023 3017 3010 3004 2999 2993 2988 2984 2980 2977 2973 2970 2967 2963 2958 2953 2947
3095 3091 3087 3082 3078 3075 3071 3066 3061 3055 3050 3043 3036 3030 3023 3016 3010 3004 2997 2991 2986 2982 2978 2975 2971 2968 2965 2961 2957 2952 2947 2941